[[{"header":{"parameterUnit":"m.s-1","parameterCategory":1,"la1":30.2991,"la2":30.254,"lo1":-89.0895,"lo2":-89.0444,"dy":0.0017,"dx":0.0017,"nx":28,"ny":28,"refTime":"2024-02-27T09:00:00:Z","depth":0,"parameterNumber":2,"parameterNumberName":"U-component_of_WINDS"},"data":[0,0,0,0,0,0,0,0,0,0,0,0,0,0,0,0,0,0,0,0,0,0,0,0,0,0,0,0,0,0,0,0,0,0,0,0,0,0,0,0,0,0,0,0,0,0,0,0,0,0,0,0,0,0,0,0,0,0,0.9441,0.9442,0,0.9447,0.9447,0.9447,0.9427,0.9426,0.9425,0.9425,0.9432,0.9432,0.9433,0,0,0,0,0,0,0,0,0,0,0,0,0,0.9414,0.9414,0.9441,0.9442,0.9442,0.9447,0.9447,0.9447,0.9427,0.9426,0.9425,0.9425,0.9431,0.9432,0.9433,0,0,0,0,0,0,0,0,0,0,0,0,0,0.9423,0.9414,0.9441,0.9432,0.9431,0.9447,0.9447,0.9447,0.9427,0.9426,0.9425,0.9424,0.9431,0.9432,0.9433,0.9459,0,0,0.9437,0.9437,0,0,0,0,0,0,0,0,0.9423,0.9424,0.9433,0.9433,0.9432,0.9435,0.944,0.9451,0.9427,0.9429,0.9425,0.9424,0.9434,0.9435,0.9438,0.9459,0.9459,0.9437,0.9438,0.9438,0.9438,0,0,0,0,0,0,0,0.9422,0.9424,0.9444,0.9434,0.9433,0.9428,0.9428,0.9442,0.9436,0.9428,0.9427,0.9428,0.9433,0.9437,0.9438,0.946,0.9437,0.9438,0.9439,0.9439,0.9503,0.9504,0,0,0,0,0,0,0.9423,0.9424,0.9444,0.9444,0.9425,0.9429,0.9429,0.9435,0.9436,0.9435,0.9429,0.9427,0.9435,0.9436,0.9438,0.9468,0.9438,0.9439,0.944,0.9502,0.9503,0.9504,0,0,0,0,0,0,0.9422,0.9425,0.9443,0.9433,0.9435,0.943,0.9437,0.9436,0.9439,0.9436,0.9435,0.9433,0.9434,0.9436,0.9454,0.9468,0.944,0.9441,0.95,0.9502,0.9503,0.9529,0,0,0,0,0,0,0.9421,0.9424,0.9434,0.9434,0.9436,0.9459,0.9438,0.9436,0.9441,0.9439,0.944,0.944,0.9434,0.9452,0.9455,0.9469,0.9442,0.9499,0.9501,0.9503,0.9526,0.9531,0.9534,0,0,0,0,0,0.942,0.9441,0.9434,0.9437,0.9448,0.946,0.9461,0.9454,0.9442,0.9452,0.945,0.944,0.9466,0.9454,0.9457,0.9472,0.9498,0.9501,0.9503,0.9525,0.953,0.9534,0,0,0,0,0,0,0.9443,0.9441,0.9434,0.9455,0.9458,0.9456,0.9468,0.946,0.9466,0.9464,0.9455,0.9455,0.9474,0.9475,0.9462,0.9497,0.948,0.9483,0.9496,0.9501,0.9505,0.9504,0.9443,0,0,0,0,0,0.9451,0.946,0.9458,0.9477,0.9478,0.9473,0.9478,0.9472,0.9475,0.9476,0.9476,0.9479,0.9488,0.9494,0.9502,0.9526,0.9526,0.9538,0.9542,0.9545,0.9548,0.9561,0.9566,0.9511,0.9511,0.9511,0,0,0.9466,0.9466,0.9473,0.9481,0.9483,0.9494,0.9474,0.9486,0.9494,0.9478,0.9495,0.9495,0.9498,0.9519,0.9528,0.9519,0.9563,0.9548,0.955,0.9552,0.9564,0.9569,0.9573,0.9513,0.9513,0.9512,0,0,0.95,0.9501,0.9516,0.9519,0.9521,0.9517,0.9521,0.9521,0.9521,0.9537,0.9525,0.9535,0.955,0.9553,0.9557,0.9592,0.9582,0.9595,0.9616,0.9628,0.9633,0.9636,0.9649,0.9654,0.9597,0.9597,0.9597,0,0.9519,0.9534,0.9526,0.9539,0.9543,0.9529,0.9545,0.9547,0.9553,0.9556,0.9546,0.9566,0.9567,0.9588,0.9597,0.96,0.9605,0.9595,0.9633,0.9636,0.964,0.9652,0.9657,0.9599,0.9599,0.9598,0.9598,0,0.9558,0.9569,0.9581,0.9587,0.9592,0.9607,0.9601,0.9608,0.9601,0.9599,0.9616,0.9616,0.9625,0.9629,0.9623,0.965,0.9645,0.9634,0.9617,0.9646,0.9658,0.9662,0.9601,0.96,0.96,0.96,0,0,0.9606,0.9607,0.9612,0.9614,0.9616,0.9624,0.9638,0.9646,0.9652,0.9656,0.9668,0.9682,0.9672,0.9676,0.967,0.9681,0.9709,0.9669,0.9669,0.9677,0.9739,0.9748,0.9753,0.9703,0.9704,0.9705,0.9739,0,0.964,0.9664,0.9657,0.9681,0.9691,0.9677,0.969,0.9692,0.969,0.9699,0.9697,0.9707,0.9693,0.9695,0.9705,0.9704,0.9722,0.9701,0.9714,0.9715,0.9714,0.9759,0.9768,0.9801,0.9744,0.9744,0.9745,0,0.9682,0.9688,0.9713,0.9714,0.9718,0.9729,0.9736,0.9744,0.9747,0.9744,0.9749,0.9741,0.9755,0.9738,0.9757,0.9743,0.9748,0.9748,0.975,0.9751,0.9732,0.9762,0.9811,0.9816,0.9752,0.9751,0.9751,0,0.9715,0.973,0.9747,0.9749,0.975,0.9758,0.9759,0.9761,0.9766,0.9772,0.9775,0.9783,0.9787,0.9793,0.9787,0.9775,0.9808,0.979,0.9807,0.9807,0.9815,0.9814,0.9865,0.9817,0.9817,0.9817,0.9817,0,0.9754,0.977,0.9762,0.9772,0.979,0.9781,0.9799,0.9798,0.98,0.9811,0.9799,0.9809,0.9801,0.981,0.9806,0.9823,0.9825,0.9824,0.9822,0.9825,0.9825,0.9828,0.9826,0.9818,0.9818,0.9818,0.9818,0,0.9794,0.9789,0.9807,0.9806,0.9807,0.982,0.9819,0.9829,0.9826,0.9839,0.9842,0.9838,0.9848,0.9843,0.9854,0.9851,0.9873,0.9868,0.9872,0.9871,0.9888,0.9887,0.9943,0.995,0.9897,0.9898,0.9898,0,0.9819,0.9831,0.9832,0.9838,0.984,0.985,0.9855,0.9847,0.9853,0.9857,0.9867,0.9876,0.9883,0.9901,0.9899,0.9907,0.9903,0.9922,0.9904,0.9906,0.9903,0.9903,0.9904,0.9926,0.9926,0.9927,0.9927,0,0.9864,0.9861,0.9869,0.9877,0.9883,0.9889,0.9893,0.9899,0.9891,0.9898,0.9909,0.9914,0.9925,0.9935,0.9942,0.9943,0.9934,0.9933,0.9937,0.994,0.9942,0.9942,0.9882,0.9932,0.9931,0.9931,0.9931,0.9931,0.9898,0.9908,0.991,0.992,0.9922,0.9927,0.9936,0.9934,0.9943,0.9951,0.9946,0.9959,0.9961,0.997,0.9972,0.9982,0.9974,0.9981,0.9982,0.9984,0.9987,0.994,0.9983,0.9983,0.9983,0.9983,0.9983,0,0.9942,0.9943,0.9952,0.9959,0.9966,0.9957,0.9961,0.9968,0.9979,0.9983,0.999,1.0002,1.0011,1.001,1.0019,1.0027,1.0023,1.0029,1.0029,1.0029,0.9993,0.9988,1.0032,1.0032,1.0032,1.0032,1.0032,1.0032,0.9967,0.9984,0.9981,0.9999,1.0,1.0012,1.0016,1.002,1.0022,1.0037,1.0044,1.0043,1.0045,1.0053,1.0062,1.0061,1.0065,1.0073,1.0071,1.0037,1.0032,1.0027,1.0023,1.0074,1.0074,1.0107,1.0107,1.0107]},{"header":{"parameterUnit":"m.s-1","parameterCategory":1,"la1":30.2991,"la2":30.254,"lo1":-89.0895,"lo2":-89.0444,"dy":0.0017,"dx":0.0017,"nx":28,"ny":28,"refTime":"2024-02-27T09:00:00:Z","depth":0,"parameterNumber":3,"parameterNumberName":"V-component_of_WINDS"},"data":[0,0,0,0,0,0,0,0,0,0,0,0,0,0,0,0,0,0,0,0,0,0,0,0,0,0,0,0,0,0,0,0,0,0,0,0,0,0,0,0,0,0,0,0,0,0,0,0,0,0,0,0,0,0,0,0,0,0,4.5202,4.5203,0,4.5284,4.5285,4.5286,4.528,4.5278,4.5277,4.5276,4.5356,4.5359,4.5362,0,0,0,0,0,0,0,0,0,0,0,0,0,4.5036,4.5039,4.5202,4.5203,4.5204,4.5284,4.5285,4.5286,4.528,4.5278,4.5277,4.5276,4.5355,4.5359,4.5362,0,0,0,0,0,0,0,0,0,0,0,0,0,4.5112,4.504,4.5201,4.521,4.5212,4.5283,4.5285,4.5286,4.528,4.5278,4.5277,4.5275,4.5353,4.5358,4.5363,4.5429,0,0,4.5378,4.538,0,0,0,0,0,0,0,0,4.5107,4.5118,4.5208,4.521,4.5212,4.527,4.5256,4.5334,4.5281,4.5254,4.5276,4.5274,4.5328,4.5335,4.5354,4.5433,4.5437,4.5378,4.5381,4.5383,4.5385,0,0,0,0,0,0,0,4.5102,4.5114,4.5234,4.5209,4.5212,4.5209,4.5218,4.527,4.53,4.5256,4.5256,4.5266,4.5329,4.535,4.5356,4.5438,4.5378,4.5383,4.5386,4.5387,4.5576,4.5578,0,0,0,0,0,0,4.5095,4.511,4.5231,4.5236,4.5154,4.5214,4.5223,4.5253,4.53,4.5305,4.5268,4.5266,4.5342,4.5351,4.5359,4.5441,4.5383,4.5388,4.5391,4.5574,4.5577,4.5579,0,0,0,0,0,0,4.5092,4.5106,4.5228,4.5173,4.5188,4.5218,4.5252,4.5255,4.5276,4.5308,4.5313,4.5284,4.5341,4.5352,4.5413,4.5444,4.539,4.5395,4.5572,4.5575,4.5578,4.5605,0,0,0,0,0,0,4.5087,4.5105,4.5131,4.5174,4.5191,4.5281,4.5253,4.5258,4.5285,4.5283,4.5325,4.533,4.5341,4.5405,4.5417,4.545,4.5398,4.5569,4.5573,4.5577,4.5602,4.5609,4.5615,0,0,0,0,0,4.5081,4.5135,4.5133,4.5147,4.5225,4.5283,4.5293,4.5306,4.5288,4.5314,4.5335,4.5328,4.5438,4.5412,4.5425,4.5459,4.5567,4.5572,4.5577,4.5599,4.5608,4.5615,0,0,0,0,0,0,4.5093,4.514,4.5139,4.5208,4.5242,4.5282,4.5316,4.5315,4.5353,4.535,4.5363,4.5372,4.5433,4.5452,4.5421,4.5526,4.55,4.5508,4.5512,4.5521,4.5528,4.5522,4.5402,0,0,0,0,0,4.5104,4.5149,4.5187,4.5244,4.5261,4.5286,4.5311,4.5318,4.5354,4.5367,4.5392,4.5426,4.5468,4.5495,4.5535,4.5604,4.5613,4.5634,4.5641,4.5646,4.5653,4.5692,4.5702,4.5594,4.5594,4.5594,0,0,4.5126,4.5158,4.5185,4.5247,4.5274,4.5319,4.5298,4.5346,4.5379,4.5374,4.5434,4.5453,4.5491,4.5556,4.5586,4.5574,4.5684,4.5652,4.5656,4.566,4.5697,4.5708,4.5717,4.5598,4.5597,4.5596,0,0,4.5191,4.5219,4.5271,4.5299,4.5341,4.5357,4.5369,4.541,4.5424,4.5484,4.5482,4.5521,4.5593,4.562,4.5644,4.572,4.5715,4.5732,4.5768,4.5805,4.5814,4.5821,4.585,4.5859,4.5738,4.5739,4.5739,0,4.5213,4.5283,4.5296,4.5346,4.5374,4.5373,4.5425,4.5451,4.5503,4.5522,4.5508,4.5599,4.5624,4.5697,4.5716,4.5734,4.5748,4.5728,4.5812,4.5819,4.5827,4.5854,4.5864,4.574,4.574,4.574,4.574,0,4.5309,4.5357,4.5393,4.5446,4.5478,4.5528,4.5549,4.5578,4.5583,4.56,4.5662,4.5692,4.5739,4.5757,4.576,4.583,4.5821,4.5809,4.5783,4.5839,4.5864,4.5875,4.5743,4.5742,4.5742,4.5741,0,0,4.5383,4.5445,4.5458,4.5483,4.553,4.5566,4.5616,4.5664,4.569,4.5726,4.5769,4.583,4.582,4.5846,4.5853,4.5886,4.5946,4.587,4.5871,4.5884,4.6026,4.6036,4.6047,4.5943,4.5945,4.5947,4.6023,0,4.5454,4.5545,4.5559,4.5639,4.5684,4.5684,4.5727,4.576,4.5778,4.5817,4.5836,4.588,4.5862,4.5879,4.5911,4.5932,4.5975,4.5926,4.5982,4.5984,4.5975,4.6061,4.6071,4.6142,4.6033,4.6035,4.6036,0,4.5548,4.559,4.5674,4.5717,4.5736,4.5775,4.5821,4.5859,4.5896,4.5906,4.5937,4.594,4.5991,4.5962,4.6033,4.6,4.6023,4.6037,4.604,4.6047,4.6014,4.6071,4.6164,4.6175,4.6051,4.605,4.6049,0,4.5596,4.5672,4.5734,4.5754,4.5805,4.5833,4.5854,4.589,4.5918,4.5958,4.5976,4.602,4.6044,4.6078,4.6092,4.607,4.6163,4.6134,4.6173,4.6172,4.6193,4.6192,4.6293,4.6206,4.6206,4.6206,4.6205,0,4.5674,4.5726,4.5756,4.5794,4.5852,4.5868,4.5924,4.5945,4.5977,4.6018,4.6019,4.6058,4.6074,4.6114,4.6126,4.6183,4.6194,4.6203,4.6206,4.6204,4.6203,4.6221,4.6217,4.6208,4.6208,4.6207,4.6207,0,4.5738,4.576,4.5827,4.587,4.5882,4.5923,4.5959,4.5995,4.6012,4.6064,4.6077,4.6104,4.6152,4.617,4.6227,4.6235,4.6302,4.63,4.629,4.6291,4.6329,4.6326,4.6446,4.6463,4.6363,4.6364,4.6365,0,4.5787,4.5828,4.5876,4.5905,4.5928,4.5974,4.6003,4.6019,4.605,4.6096,4.6127,4.6175,4.6214,4.629,4.6314,4.6358,4.6358,4.6397,4.6365,4.6362,4.636,4.6359,4.6363,4.6404,4.6405,4.6405,4.6406,0,4.5873,4.5882,4.5926,4.5974,4.6009,4.6047,4.6084,4.6107,4.6128,4.6162,4.6212,4.6243,4.6303,4.6351,4.6396,4.6417,4.6416,4.6416,4.6428,4.6427,4.642,4.6426,4.6308,4.6413,4.6413,4.6412,4.6412,4.6411,4.5932,4.5969,4.6009,4.6057,4.6087,4.6122,4.6158,4.6181,4.6224,4.6275,4.6282,4.6336,4.6372,4.6433,4.6456,4.6498,4.6487,4.6504,4.6508,4.6512,4.6516,4.6413,4.6506,4.6506,4.6506,4.6506,4.6505,0,4.6019,4.6045,4.609,4.6142,4.618,4.6177,4.6217,4.6249,4.6297,4.6332,4.6372,4.643,4.6476,4.6504,4.6551,4.6579,4.6579,4.659,4.6589,4.6594,4.6522,4.6508,4.6589,4.6589,4.6589,4.6589,4.6589,4.6589,4.6069,4.6131,4.6145,4.6222,4.6247,4.6302,4.6326,4.6358,4.6386,4.6451,4.6491,4.6509,4.6541,4.659,4.6632,4.6639,4.6657,4.667,4.6676,4.6608,4.6599,4.6591,4.6578,4.6673,4.6673,4.6745,4.6745,4.6746]}]]